sat.trackr.live / text

‹ back to catalog

STARLINK-35277

NORAD 65832 · 2025-221K

PAYLOAD ACTIVE UNKNOWN

§ Identity

Operator
Country
US
Launch date
2025-09-29
Launch site
AFWTR
Launch vehicle
Mass (kg)
RCS (m²)

Purposes: comms

External: N2YO · Heavens-Above · Gunter

§ Orbital elements

Epoch: 2026-05-23T06:41:12.146784Z

Period
94.10 min
Inclination
53.1620°
Eccentricity
0.0001798
Mean motion
15.30223797 rev/d
Perigee alt
473.9 km
Apogee alt
476.4 km
Semi-major
6,853.3 km
B*
6.8952e-4
RAAN
101.8507°
Arg perigee
139.0441°
Mean anomaly
221.0695°
Rev number
3,750

§ Raw data

STARLINK-352771 65832U 25221K   26143.27861281  .00020133  00000+0  68952-3 0  99982 65832  53.1620 101.8507 0001798 139.0441 221.0695 15.30223797 37501

JSON: /api/v1/satellites/65832 · /tle

For live sub-satellite position, see the globe view (requires WebGL).

§ Visibility from observer

Set your observer location to see the next 7 days of passes ≥ 10°. The values pass through the URL so the page stays shareable.

No JS? Fill the form by hand. The geolocation button needs JavaScript.